Regional Weather Roundup
Issued by NWS

Home | Current Version | Previous Version | Graphics & Text | Print | Product List | Glossary Off
Versions: 1 2 3 4 5 6 7 8 9 10 11 12 13 14 15 16 17 18 19 20 21 22 23 24 25 26 27 28 29 30 31 32 33 34 35 36 37 38 39 40 41 42 43 44 45 46 47 48 49 50

536
ASUS43 KMKX 200210
RWRWI

WISCONSIN REGIONAL WEATHER ROUNDUP
NATIONAL WEATHER SERVICE MILWAUKEE/SULLIVAN WI
800 PM CST FRI JAN 19 2018

NOTE: "FAIR" INDICATES FEW OR NO CLOUDS BELOW 12,000 FEET WITH NO
SIGNIFICANT WEATHER AND/OR OBSTRUCTIONS TO VISIBILITY.

WIZ001-002-006>008-014>016-023>028-200300-
NORTHWEST WISCONSIN

CITY           SKY/WX    TMP DP  RH WIND       PRES   REMARKS
SUPERIOR ARPT  FAIR      37  28  70 SW9       29.50S WCI  31
ASHLAND        FAIR      39  27  62 SW12      29.50R WCI  32
HAYWARD        FAIR      28  22  78 SW6       29.53R WCI  22
SIREN          FAIR      35  28  76 SW7       29.56R WCI  29
CUMBERLAND     FAIR      32  27  80 W8        29.56R WCI  25
RICE LAKE      FAIR      26  25  93 CALM      29.58R
CHETEK         FAIR      28  25  86 CALM      29.56S
LADYSMITH      FAIR      32  26  78 S5        29.56F WCI  27
EAU CLAIRE     FAIR      34  28  79 SW6       29.58R WCI  29
MENOMONIE      FAIR      35  29  79 S3        29.59R
NEW RICHMOND   FAIR      31  26  83 S5        29.59R WCI  26
OSCEOLA        FAIR      27  24  89 CALM      29.61R
$$

WIZ003>005-009-010-017-018-200300-
NORTH CENTRAL WISCONSIN

CITY           SKY/WX    TMP DP  RH WIND       PRES   REMARKS
MANITOWISH WTR FAIR      33  25  73 SW8       29.48S WCI  25
ARBOR VITAE    FAIR      34  27  75 W6        29.49R WCI  29
WOODRUFF       FAIR      34  27  75 W6        29.49R WCI  29
RHINELANDER    FAIR      31  25  78 W13       29.52R WCI  21
EAGLE RIVER    FAIR      32  24  72 W12       29.48R WCI  23
LAND O LAKES   FAIR      34  26  71 W8        29.48R WCI  27
PHILLIPS       FAIR      31  25  77 SW5       29.51S WCI  27
TOMAHAWK       FAIR      32  25  74 W5        29.54R WCI  27
MEDFORD        FAIR      32  25  76 W8        29.55R WCI  25
MERRILL        FAIR      31  25  76 W7        29.54S WCI  25
$$

WIZ029-030-035-036-043>047-200300-
CENTRAL WISCONSIN

CITY           SKY/WX    TMP DP  RH WIND       PRES   REMARKS
WAUSAU         FAIR      36  26  67 W12       29.53R WCI  28
MOSINEE        PTCLDY    34  27  75 W12       29.57R WCI  25
MARSHFIELD     FAIR      35  26  69 W10       29.55R WCI  27
STEVENS POINT  FAIR      35  25  67 SW9       29.57R WCI  27
WAUPACA        FAIR      39  27  62 SW8       29.58R WCI  33
WAUTOMA        FAIR      37  26  64 SW8       29.60R WCI  31
WISC RAPIDS    FAIR      37  24  59 W7        29.60R WCI  32
CAMP DOUGLAS   FAIR      39  29  66 W10       29.61R WCI  32
$$

WIZ011>013-019>022-031-037>040-048>050-200300-
NORTHEAST WISCONSIN

CITY           SKY/WX    TMP DP  RH WIND       PRES   REMARKS
ANTIGO         FAIR      32  25  74 W12       29.52S WCI  23
SHAWANO        FAIR      37  26  67 SW7       29.55R WCI  31
OCONTO         FAIR      35  27  70 SW9G16    29.54R WCI  28
STURGEON BAY   FAIR      37  27  67 SW17G24   29.53R WCI  27
GREEN BAY      FAIR      35  26  69 SW9       29.56R WCI  28
MANITOWOC      FAIR      39  27  62 SW15G25   29.58R WCI  31
APPLETON       MOCLDY    36  25  64 SW15      29.55S WCI  26
CLINTONVILLE   FAIR      34  25  69 W5        29.56R WCI  30
OSHKOSH        FAIR      36  27  69 SW12      29.58R WCI  28
$$

WIZ032>034-041-042-053>061-200300-
SOUTHWEST WISCONSIN

CITY           SKY/WX    TMP DP  RH WIND       PRES   REMARKS
LA CROSSE      FAIR      40  30  67 SW6       29.63R
SPARTA         FAIR      39  30  69 W3        29.63R
VIROQUA        FAIR      38  30  72 SW13      29.62R WCI  30
BOSCOBEL       FAIR      39  27  62 SW7       29.66R WCI  34
PRAIRIE DU CHI FAIR      41  26  55 S5        29.67R
PLATTEVILLE    FAIR      37  30  75 SW12      29.69R WCI  30
$$

WIZ056-057-062-063-064-067-068-200300-
SOUTH CENTRAL WISCONSIN

CITY           SKY/WX    TMP DP  RH WIND       PRES   REMARKS
REEDSBURG      FAIR      38  28  68 SW10      29.62R WCI  30
BARABOO/DELLS  FAIR      37  27  65 SW14G20   29.61S WCI  29
LONE ROCK      FAIR      37  28  70 SW7       29.66R WCI  32
MINERAL POINT  FAIR      37  32  81 SW10      29.67R WCI  30
MADISON        MOCLDY    38  27  64 SW9G20    29.66R WCI  31
MIDDLETON      FAIR      39  28  65 W8G16     29.66R WCI  34
WATERTOWN      FAIR      37  29  72 SW14      29.65R WCI  29
MONROE         FAIR      37  28  70 SW20      29.66R WCI  27
JANESVILLE     PTCLDY    39  28  65 SW17G25   29.67R WCI  30
$$

WIZ051-052-058>065-066-070>072-200300-
SOUTHEAST WISCONSIN

CITY           SKY/WX    TMP DP  RH WIND       PRES   REMARKS
MILWAUKEE      MOCLDY    41  27  57 SW20G31   29.64R
WAUKESHA       CLEAR     37  27  65 SW13G21   29.65R WCI  29
MILWAUKEE/TIMM CLEAR     39  25  56 SW17G26   29.64R WCI  30
RACINE         FAIR      41  27  57 SW16G31   29.66S
BURLINGTON     FAIR      39  27  61 SW20G29   29.67R WCI  29
KENOSHA        FAIR      42  26  53 SW22G38   29.65S
FOND DU LAC    FAIR      37  26  64 SW13G20   29.60R WCI  29
SHEBOYGAN      FAIR      39  28  64 SW22      29.59R WCI  29
WEST BEND      FAIR      37  27  65 SW14G20   29.61S WCI  29
JUNEAU         FAIR      35  28  74 SW13      29.65R WCI  26
$$

LSZ147-162-200300-
LAKE SUPERIOR

STATION/POSITION TIME  TEMP    WIND        PRES    WAVE
                       AIR SEA DIR/SP/G            HT/PER
                 (UTC) (F)     (DEG/KT/KT) (MB)    (FT/S)
DEVILS ISLAND    0200   38     240/ 20/ 22  997.6R
SAXON HARBOR     0140   42     200/ 11/ 15  998.0R
$$

LMZ867-665-643>646-200300-
LAKE MICHIGAN

STATION/POSITION TIME  TEMP    WIND        PRES    WAVE
                       AIR SEA DIR/SP/G            HT/PER
                 (UTC) (F)     (DEG/KT/KT) (MB)    (FT/S)
NORTHPORT PIER   0203   36     220/  6/ 20  999.3
KEWAUNEE LAKESHO 0142   38     230/ 10/ 16 1000.2F
SHEBOYGAN LAKESH 0200   41     230/ 16/ 19 1003.0R
PORT WASHINGTON  0140   41     240/ 15/ 20 1004.1R
MILWAUKEE LAKESH 0150   42     240/ 21/ 23   N/A
KENOSHA   LAKESH 0200   42     220/ 16/ 24 1005.1
$$

TC  - TEMPERATURE IN CELSIUS
VSB - VISIBILITY IN STATUTE MILES
WCI - WIND CHILL INDEX
HX  - HEAT INDEX





USA.gov is the U.S. government's official web portal to all federal, state and local government web resources and services.